Tracking 25656 objects as of 21-May-2022
HD Live streaming from Space Station
objects crossing your sky now

STARLINK-3805

Track STARLINK-3805 now!
10-day predictions
STARLINK-3805 is classified as:


NORAD ID: 52377
Int'l Code: 2022-045AY
Perigee: 356.3 km
Apogee: 357.7 km
Inclination: 53.2 °
Period: 91.5 minutes
Semi major axis: 6728 km
RCS: Unknown
Launch date: April 29, 2022
Source: United States (US)
Launch site: AIR FORCE EASTERN TEST RANGE (AFETR)
aabbcc
Your satellite tracking list
Your tracking list is empty




NASA's NSSDC Master Catalog

Two Line Element Set (TLE):
1 52377U 22045AY  22141.58335648  .00050536  00000-0  36292-3 0  9993
2 52377  53.2137 328.8516 0001071  91.0307  75.2240 15.73161295  1303
Source of the keplerian elements: AFSPC